TimeCST,TemperatureF,Dew PointF,Humidity,Sea Level PressureIn,VisibilityMPH,Wind Direction,Wind SpeedMPH,Gust SpeedMPH,PrecipitationIn,Events,Conditions,WindDirDegrees,DateUTC
12:15 AM,23.9,15.8,71,30.46,10.0,NW,11.5,-,N/A,,Overcast,310,2013-11-23 06:15:00
12:35 AM,23.5,14.0,67,30.47,10.0,NW,9.2,21.9,N/A,,Mostly Cloudy,310,2013-11-23 06:35:00
12:55 AM,22.6,11.8,63,30.48,10.0,NW,13.8,24.2,N/A,,Scattered Clouds,320,2013-11-23 06:55:00
1:15 AM,21.6,11.3,65,30.49,10.0,NW,10.4,19.6,N/A,,Clear,310,2013-11-23 07:15:00
1:35 AM,21.2,10.0,62,30.50,10.0,NNW,17.3,20.7,N/A,,Scattered Clouds,330,2013-11-23 07:35:00
1:55 AM,20.3,8.1,59,30.51,10.0,NNW,10.4,-,N/A,,Overcast,330,2013-11-23 07:55:00
2:15 AM,20.1,7.5,58,30.52,10.0,NNW,12.7,19.6,N/A,,Overcast,330,2013-11-23 08:15:00
2:35 AM,19.4,6.1,56,30.53,10.0,NW,15.0,23.0,N/A,,Mostly Cloudy,320,2013-11-23 08:35:00
2:55 AM,19.6,6.4,57,30.53,10.0,NW,13.8,21.9,N/A,,Overcast,310,2013-11-23 08:55:00
3:15 AM,19.4,6.8,58,30.53,10.0,NW,11.5,20.7,N/A,,Overcast,310,2013-11-23 09:15:00
3:35 AM,18.5,9.5,68,30.54,7.0,NW,15.0,23.0,N/A,Snow,Light Snow,320,2013-11-23 09:35:00
3:55 AM,16.9,5.4,61,30.56,10.0,NW,20.7,27.6,N/A,,Overcast,310,2013-11-23 09:55:00
4:15 AM,15.3,3.9,61,30.57,10.0,NW,10.4,-,N/A,,Mostly Cloudy,320,2013-11-23 10:15:00
4:35 AM,14.9,4.3,63,30.59,10.0,NNW,12.7,-,N/A,,Overcast,340,2013-11-23 10:35:00
4:55 AM,14.2,4.1,64,30.60,10.0,NW,11.5,19.6,N/A,,Mostly Cloudy,320,2013-11-23 10:55:00
5:15 AM,13.1,4.1,67,30.61,10.0,NW,5.8,-,N/A,,Scattered Clouds,320,2013-11-23 11:15:00
5:35 AM,12.7,3.6,67,30.61,10.0,NW,12.7,17.3,N/A,,Scattered Clouds,320,2013-11-23 11:35:00
5:55 AM,12.0,1.8,64,30.62,10.0,NNW,15.0,18.4,N/A,,Clear,330,2013-11-23 11:55:00
6:15 AM,11.3,2.1,67,30.63,10.0,NW,8.1,-,N/A,,Clear,310,2013-11-23 12:15:00
6:35 AM,10.9,2.1,68,30.64,10.0,NNW,11.5,17.3,N/A,,Clear,330,2013-11-23 12:35:00
6:55 AM,10.4,2.1,69,30.65,10.0,NW,10.4,-,N/A,,Clear,320,2013-11-23 12:55:00
7:15 AM,10.4,2.3,70,30.66,10.0,NW,9.2,-,N/A,,Clear,320,2013-11-23 13:15:00
7:35 AM,10.8,2.7,70,30.67,10.0,NW,9.2,17.3,N/A,,Clear,310,2013-11-23 13:35:00
7:55 AM,11.1,2.8,69,30.68,10.0,NW,10.4,18.4,N/A,,Clear,310,2013-11-23 13:55:00
8:15 AM,11.8,3.2,68,30.70,10.0,NW,9.2,16.1,N/A,,Clear,320,2013-11-23 14:15:00
8:35 AM,12.6,3.2,66,30.70,10.0,NW,11.5,16.1,N/A,,Clear,320,2013-11-23 14:35:00
8:55 AM,12.9,2.7,64,30.71,10.0,NW,11.5,18.4,N/A,,Clear,320,2013-11-23 14:55:00
9:15 AM,14.0,2.8,61,30.71,10.0,NNW,12.7,-,N/A,,Clear,340,2013-11-23 15:15:00
9:35 AM,13.6,2.7,62,30.72,10.0,NNW,15.0,20.7,N/A,,Scattered Clouds,330,2013-11-23 15:35:00
9:55 AM,13.8,2.1,60,30.73,10.0,NW,12.7,20.7,N/A,,Scattered Clouds,310,2013-11-23 15:55:00
10:15 AM,15.1,2.3,57,30.72,10.0,NW,9.2,19.6,N/A,,Clear,310,2013-11-23 16:15:00
10:35 AM,15.1,2.5,58,30.73,10.0,NW,12.7,-,N/A,,Scattered Clouds,320,2013-11-23 16:35:00
10:55 AM,15.4,2.5,57,30.72,10.0,NW,13.8,20.7,N/A,,Scattered Clouds,310,2013-11-23 16:55:00
11:15 AM,15.6,2.3,56,30.72,10.0,NW,13.8,23.0,N/A,,Scattered Clouds,310,2013-11-23 17:15:00
11:35 AM,15.8,2.3,55,30.72,10.0,NW,13.8,-,N/A,,Mostly Cloudy,320,2013-11-23 17:35:00
11:55 AM,15.8,2.5,56,30.72,10.0,WNW,10.4,19.6,N/A,,Mostly Cloudy,300,2013-11-23 17:55:00
12:15 PM,16.3,2.5,55,30.72,10.0,WNW,12.7,18.4,N/A,,Mostly Cloudy,300,2013-11-23 18:15:00
12:35 PM,16.5,2.1,53,30.72,10.0,NW,11.5,20.7,N/A,,Mostly Cloudy,310,2013-11-23 18:35:00
12:55 PM,17.1,2.1,52,30.72,10.0,NNW,10.4,-,N/A,,Mostly Cloudy,330,2013-11-23 18:55:00
1:15 PM,17.2,1.8,51,30.71,10.0,WNW,12.7,16.1,N/A,,Scattered Clouds,290,2013-11-23 19:15:00
1:35 PM,17.8,0.9,48,30.71,10.0,NW,10.4,19.6,N/A,,Scattered Clouds,310,2013-11-23 19:35:00
1:55 PM,18.1,1.2,48,30.71,10.0,WNW,13.8,18.4,N/A,,Clear,300,2013-11-23 19:55:00
2:15 PM,17.8,0.5,47,30.71,10.0,NW,15.0,20.7,N/A,,Clear,320,2013-11-23 20:15:00
2:35 PM,18.3,0.5,46,30.71,10.0,NNW,10.4,16.1,N/A,,Clear,330,2013-11-23 20:35:00
2:55 PM,18.0,0.7,47,30.72,10.0,NW,11.5,16.1,N/A,,Clear,320,2013-11-23 20:55:00
3:15 PM,17.6,-0.0,46,30.72,10.0,NW,11.5,-,N/A,,Clear,320,2013-11-23 21:15:00
3:35 PM,17.2,0.3,48,30.72,10.0,WNW,10.4,18.4,N/A,,Clear,290,2013-11-23 21:35:00
3:55 PM,16.7,1.0,50,30.72,10.0,WNW,10.4,-,N/A,,Clear,300,2013-11-23 21:55:00
4:15 PM,15.8,0.5,51,30.73,10.0,NW,10.4,-,N/A,,Clear,310,2013-11-23 22:15:00
4:35 PM,15.3,0.9,53,30.72,10.0,WNW,6.9,-,N/A,,Clear,300,2013-11-23 22:35:00
4:55 PM,14.5,1.4,56,30.72,10.0,WNW,6.9,-,N/A,,Clear,300,2013-11-23 22:55:00
5:15 PM,13.8,1.2,57,30.73,10.0,WNW,5.8,-,N/A,,Clear,300,2013-11-23 23:15:00
5:35 PM,13.1,1.4,60,30.73,10.0,WNW,4.6,-,N/A,,Clear,300,2013-11-23 23:35:00
5:55 PM,12.2,1.6,63,30.72,10.0,NW,3.5,-,N/A,,Clear,310,2013-11-23 23:55:00
6:15 PM,11.1,0.9,63,30.72,10.0,Calm,Calm,-,N/A,,Clear,0,2013-11-24 00:15:00
6:35 PM,8.6,2.5,76,30.72,10.0,Calm,Calm,-,N/A,,Clear,0,2013-11-24 00:35:00
6:55 PM,7.2,0.9,75,30.72,10.0,Calm,Calm,-,N/A,,Clear,0,2013-11-24 00:55:00
7:15 PM,5.2,-0.6,77,30.72,10.0,Calm,Calm,-,N/A,,Clear,0,2013-11-24 01:15:00
7:35 PM,4.6,-0.6,79,30.72,10.0,Calm,Calm,-,N/A,,Clear,0,2013-11-24 01:35:00
7:55 PM,3.7,-0.6,82,30.73,10.0,Calm,Calm,-,N/A,,Clear,0,2013-11-24 01:55:00
8:15 PM,3.2,-0.6,84,30.73,10.0,Calm,Calm,-,N/A,,Clear,0,2013-11-24 02:15:00
8:35 PM,3.2,-0.4,85,30.73,10.0,Calm,Calm,-,N/A,,Clear,0,2013-11-24 02:35:00
8:55 PM,2.7,-0.9,85,30.73,10.0,Calm,Calm,-,N/A,,Clear,0,2013-11-24 02:55:00
9:15 PM,2.1,-1.3,86,30.72,10.0,Calm,Calm,-,N/A,,Clear,0,2013-11-24 03:15:00
9:35 PM,1.4,-2.0,86,30.72,10.0,Calm,Calm,-,N/A,,Clear,0,2013-11-24 03:35:00
9:55 PM,1.2,-2.4,85,30.71,10.0,Calm,Calm,-,N/A,,Clear,0,2013-11-24 03:55:00
10:15 PM,0.9,-2.7,85,30.72,10.0,Calm,Calm,-,N/A,,Clear,0,2013-11-24 04:15:00
10:35 PM,0.3,-3.1,85,30.72,10.0,Calm,Calm,-,N/A,,Clear,0,2013-11-24 04:35:00
10:55 PM,-0.0,-3.6,85,30.71,10.0,Calm,Calm,-,N/A,,Clear,0,2013-11-24 04:55:00
11:15 PM,0.3,-3.1,85,30.70,10.0,Calm,Calm,-,N/A,,Clear,0,2013-11-24 05:15:00
11:35 PM,-0.4,-4.2,84,30.71,10.0,Calm,Calm,-,N/A,,Clear,0,2013-11-24 05:35:00
11:55 PM,-0.4,-4.0,85,30.70,10.0,Calm,Calm,-,N/A,,Clear,0,2013-11-24 05:55:00